Lapse_Rate
5.6 5.6 5.8 6.0 5.9 5.7 5.6 5.6 5.6 5.7 5.9 6.0 6.0 6.1 6.1 6.1 5.9 5.8 5.6 5.4 5.3 5.3 5.4 5.5 5.6 5.8 5.9 6.1 6.2 6.3 6.4 6.6 6.7 6.9 7.0 6.9 7.0 7.0 6.7 6.8 6.9 6.9 7.0
5.7 5.7 5.8 5.9 5.7 5.5 5.5 5.5 5.5 5.6 5.8 5.8 5.9 6.1 6.1 6.0 5.9 5.7 5.7 5.5 5.4 5.4 5.4 5.5 5.5 5.5 5.7 5.8 5.9 5.9 6.1 6.2 6.4 6.6 6.7 6.9 6.9 6.9 6.9 7.0 6.8 6.9 7.0
5.9 5.8 5.8 5.7 5.5 5.4 5.4 5.4 5.5 5.7 5.9 5.9 6.0 6.0 6.1 6.0 5.7 5.5 5.4 5.3 5.3 5.4 5.4 5.5 5.6 5.7 5.8 5.9 5.8 5.9 6.1 6.3 6.5 6.5 6.5 6.7 6.8 6.9 7.1 7.1 7.0 7.1 6.9
5.9 5.7 5.6 5.4 5.2 5.2 5.4 5.2 5.4 5.7 5.8 5.8 5.8 5.9 5.9 5.7 5.6 5.4 5.3 5.1 5.2 5.3 5.3 5.4 5.6 5.7 5.9 6.0 6.1 6.4 6.6 6.7 6.6 6.6 6.5 6.5 6.5 6.6 6.9 7.2 7.4 7.3 7.4
5.8 5.5 5.3 5.1 5.1 5.2 5.1 5.2 5.4 5.5 5.8 5.8 5.7 5.7 5.7 5.6 5.6 5.4 5.2 5.0 5.1 5.3 5.4 5.5 5.7 5.8 6.0 6.1 6.3 6.6 6.8 6.9 6.8 6.6 6.3 6.3 6.2 6.0 5.9 6.1 6.7 7.0 7.3
5.5 5.2 5.1 5.0 4.9 5.0 4.9 5.2 5.3 5.7 5.8 5.8 5.6 5.7 5.6 5.5 5.4 5.3 5.2 5.1 5.4 5.6 5.6 5.5 5.7 5.6 5.8 5.9 6.0 6.2 6.4 6.2 5.9 5.8 5.9 6.0 5.7 5.3 4.9 4.8 5.0 5.4 5.9
5.2 5.1 4.9 4.8 4.8 4.8 4.9 5.1 5.2 5.4 5.5 5.5 5.6 5.5 5.3 5.5 5.7 5.6 5.7 5.5 5.7 5.8 5.7 5.8 5.7 5.5 5.4 5.3 5.2 5.1 4.9 4.7 4.7 4.8 4.7 4.3 4.0 3.9 3.7 3.5 3.3 3.6 4.5
5.2 5.1 4.8 4.8 4.7 4.7 4.9 4.9 5.1 5.3 5.3 5.4 5.3 5.4 5.5 5.7 5.8 5.9 5.8 5.6 5.6 5.7 5.6 5.4 4.9 4.8 4.3 4.1 4.2 4.1 4.3 4.0 3.7 3.5 2.8 2.2 2.1 1.9 1.3 1.1 1.7 1.5 1.7
5.0 4.8 4.7 4.7 4.6 4.7 4.7 4.8 5.0 5.2 5.1 5.1 5.0 4.8 4.9 5.0 5.2 5.8 5.7 5.6 5.6 5.2 4.9 4.6 4.0 3.5 3.3 3.3 3.6 4.1 4.0 3.6 3.3 2.9 3.0 3.3 3.8 3.7 3.3 3.0 3.0 2.4 2.0
4.9 4.8 4.6 4.5 4.5 4.5 4.6 4.8 4.9 5.0 5.0 4.9 4.8 4.7 4.7 4.5 4.2 4.7 5.5 5.5 5.5 4.9 4.5 4.0 3.3 3.3 3.0 3.0 3.8 4.3 4.0 3.5 3.5 4.2 5.3 5.2 4.8 4.2 4.1 4.0 3.7 3.7 3.7
4.9 4.7 4.5 4.4 4.5 4.5 4.6 4.8 5.0 5.0 4.9 4.8 4.8 4.8 4.7 4.5 4.3 4.3 4.7 5.0 5.3 4.5 4.2 4.1 3.6 3.4 3.3 3.4 3.9 4.0 3.7 4.1 5.3 6.1 6.0 6.1 5.6 4.8 4.9 4.6 4.3 4.2 4.1
4.8 4.6 4.3 4.3 4.4 4.5 4.7 4.8 5.0 4.9 5.1 5.0 4.7 4.7 4.7 4.4 4.6 4.3 4.4 4.7 4.9 5.0 4.4 4.3 4.1 3.9 3.8 3.7 3.7 3.6 4.4 5.9 6.8 6.9 7.0 6.8 6.5 5.7 5.6 5.6 5.3 5.4 5.1
4.4 4.3 4.3 4.2 4.4 4.6 4.7 5.0 5.0 5.0 5.1 4.8 4.6 4.5 4.5 4.4 4.5 4.2 4.3 4.5 4.5 4.9 4.7 4.4 4.2 3.9 3.7 3.7 3.5 4.2 5.6 6.8 7.3 7.3 7.0 6.8 6.4 6.2 5.8 5.8 6.0 6.2 6.1
4.2 4.3 4.1 4.3 4.5 4.7 4.9 4.9 4.8 5.0 5.0 4.7 4.5 4.4 4.4 4.3 4.4 4.2 4.3 4.3 4.6 4.8 4.7 4.3 4.2 3.9 3.6 3.7 3.8 5.1 6.3 6.9 7.0 6.6 6.4 6.2 6.2 6.2 6.2 6.3 5.9 6.2 6.6
4.3 4.1 4.1 4.3 4.6 4.7 4.7 4.6 4.8 4.8 4.7 4.6 4.5 4.5 4.4 4.4 4.5 4.3 4.3 4.2 4.2 4.4 4.8 4.4 4.1 3.9 3.7 3.7 4.9 5.5 6.4 7.0 6.6 6.3 6.3 6.2 6.2 6.2 6.2 6.3 6.4 6.4 6.5
4.2 4.2 4.3 4.5 4.5 4.5 4.5 4.6 4.6 4.6 4.5 4.6 4.5 4.5 4.5 4.5 4.5 4.4 4.3 4.3 4.2 3.9 4.3 4.2 4.0 3.9 3.9 4.4 5.8 5.7 6.2 6.5 6.2 6.1 6.2 6.3 6.6 6.3 6.3 6.4 6.6 6.8 7.1
4.3 4.2 4.4 4.5 4.5 4.5 4.6 4.7 4.5 4.6 4.8 4.7 4.6 4.7 4.6 4.6 4.6 4.5 4.3 4.4 4.2 3.7 3.9 4.3 4.0 3.9 4.5 5.4 6.0 6.1 6.1 6.3 6.4 6.2 6.3 6.0 5.9 6.0 6.3 6.4 6.7 6.8 7.1
4.3 4.4 4.6 4.5 4.5 4.5 4.6 4.6 4.6 4.7 4.8 4.7 4.7 4.8 4.7 4.8 4.6 4.3 4.5 4.5 4.1 3.8 3.8 3.8 3.9 4.2 5.5 6.3 6.1 6.3 6.4 6.5 6.4 6.3 5.6 5.4 5.5 6.0 6.1 6.2 6.2 6.4 6.9
4.5 4.6 4.6 4.6 4.6 4.6 4.7 4.7 4.7 4.9 4.9 4.8 4.9 4.9 4.8 4.7 4.5 4.5 4.4 4.4 4.0 3.9 3.8 3.6 4.2 4.6 6.2 6.4 6.3 6.5 6.6 6.6 6.7 5.8 5.3 5.3 5.6 5.9 6.2 6.2 6.0 6.2 6.8
4.7 4.7 4.7 4.7 4.7 4.7 4.7 4.8 4.9 5.2 5.1 5.0 5.0 4.9 4.7 4.5 4.5 4.5 4.4 4.4 4.4 4.1 3.7 3.4 3.7 4.7 6.2 6.4 6.4 6.2 6.8 6.7 6.9 5.8 5.4 5.6 5.8 6.0 5.9 5.8 5.8 5.9 6.1
4.8 4.8 4.9 4.8 4.7 4.7 4.8 5.0 5.1 5.2 5.2 5.1 4.9 4.8 4.6 4.5 4.5 4.5 4.4 4.2 4.1 3.9 3.8 3.4 3.7 4.9 5.9 6.2 6.1 6.1 6.0 6.8 7.2 5.7 5.8 6.2 5.9 6.1 6.1 6.1 6.3 6.3 6.0
4.9 4.8 4.9 4.8 4.7 4.8 5.1 5.1 5.2 5.4 5.2 5.0 4.9 4.7 4.5 4.5 4.6 4.5 4.5 4.3 3.8 3.5 3.4 3.4 4.1 5.3 5.9 6.0 6.0 6.0 5.8 6.4 6.9 6.0 5.4 6.9 5.4 6.2 6.1 6.2 6.2 6.1 5.8
4.9 4.9 4.9 4.8 4.8 4.9 5.2 5.1 5.2 5.3 5.1 4.9 4.9 4.6 4.6 4.6 4.6 4.5 4.3 4.1 4.1 4.0 3.6 3.7 4.5 5.6 5.8 5.8 5.8 6.1 5.9 6.1 6.1 5.9 5.0 6.3 6.2 6.2 5.7 6.1 5.8 5.7 6.1
4.9 5.0 5.0 5.0 4.9 5.1 5.2 5.1 5.3 5.2 4.8 4.8 4.6 4.4 4.5 4.5 4.4 4.4 4.5 4.4 4.0 3.8 3.5 3.9 5.0 6.0 5.9 5.9 5.8 5.5 5.8 5.8 6.0 5.7 4.8 5.4 5.9 6.3 6.2 6.0 5.4 4.8 5.2
5.0 5.2 5.0 5.1 5.1 5.3 5.2 5.3 5.2 4.9 4.7 4.7 4.5 4.6 4.5 4.6 4.6 4.4 4.3 4.3 4.1 4.0 4.2 4.6 5.8 6.0 5.8 5.7 5.6 5.4 5.5 5.1 5.9 6.3 5.3 5.0 5.9 6.1 6.4 6.3 5.7 5.1 5.4
5.3 5.2 5.2 5.2 5.1 5.1 5.3 5.2 5.0 4.9 4.7 4.6 4.6 4.7 4.8 4.7 4.6 4.5 4.5 4.3 4.2 4.2 4.7 5.6 6.1 5.8 5.5 5.6 5.6 5.3 5.2 4.8 5.0 6.4 5.3 5.2 5.7 5.3 6.0 6.2 5.5 5.3 6.4
Wind_Speed
10 13 10 11 11 9 7 7 7 7 9 9 9 9 8 9 10 8 8 10 11 12 16 19 20 20 20 20 20 21 22 23 25 25 26 28 29 29 29 29 29 29 28
15 11 9 9 9 7 6 7 5 6 7 8 7 9 7 8 7 7 6 7 10 12 19 19 21 22 21 21 22 22 22 25 27 28 29 29 30 32 31 32 31 30 31
15 13 9 8 7 7 7 6 6 7 6 8 5 8 8 10 7 7 6 6 9 12 17 18 23 23 24 22 23 23 25 27 28 29 30 32 33 34 34 33 36 35 33
16 13 9 7 7 7 6 4 3 3 3 4 4 4 6 9 8 6 6 7 12 11 13 21 23 24 24 22 24 25 26 27 29 29 30 31 33 36 34 35 36 35 36
15 14 10 9 8 7 5 2 3 3 3 4 4 4 4 3 4 3 1 12 10 10 12 19 21 21 21 23 24 25 25 27 28 30 31 32 33 35 37 38 39 38 37
16 15 11 9 8 5 2 2 4 3 1 3 5 5 4 4 4 3 3 9 10 8 8 12 15 14 20 21 23 25 26 27 29 30 31 32 35 37 39 40 41 43 39
16 14 10 9 6 4 2 2 2 3 3 4 3 3 3 3 4 3 6 6 6 6 11 12 14 15 15 21 24 24 27 28 28 29 30 32 34 37 38 40 43 43 45
16 13 11 6 7 4 3 3 3 1 2 4 3 1 3 3 3 4 4 4 4 5 9 12 16 18 17 18 21 27 27 28 29 30 32 33 35 37 39 38 42 43 44
16 14 12 10 7 4 3 3 3 3 2 2 3 1 2 2 4 3 3 5 5 4 8 14 15 18 20 19 22 23 25 27 29 30 32 34 36 36 38 38 39 42 43
14 14 13 11 8 6 4 3 3 3 3 2 1 1 1 2 2 4 3 4 6 7 11 9 14 18 18 19 22 26 28 27 29 31 33 34 35 37 38 39 40 41 43
14 14 13 12 8 6 5 5 4 4 2 2 2 1 1 3 4 5 5 3 7 8 7 8 12 16 18 19 19 20 25 30 29 31 33 36 38 39 39 39 38 41 42
4 10 12 11 10 7 5 4 4 4 3 2 2 3 3 3 2 3 4 7 10 8 7 9 8 12 16 17 21 26 28 29 30 33 34 36 38 39 39 39 38 37 40
3 6 8 6 6 7 7 6 4 3 2 2 3 3 3 4 4 4 6 8 6 8 5 5 7 11 13 16 18 25 27 32 32 33 35 37 38 39 39 39 38 37 36
6 9 9 10 9 8 7 5 2 2 3 3 5 4 4 4 3 4 4 6 10 5 10 7 4 7 10 12 22 30 23 31 33 34 35 36 37 36 37 38 39 37 37
6 8 10 6 7 7 6 5 2 2 2 3 4 5 4 4 4 4 4 5 5 8 11 3 4 5 13 19 23 25 24 29 35 36 36 36 35 36 36 36 37 38 36
7 8 6 6 5 5 5 4 2 2 3 3 4 5 4 4 4 4 5 5 6 9 10 7 12 14 15 17 24 27 25 32 33 35 36 36 36 35 35 35 35 35 34
9 8 7 6 5 5 4 3 3 4 4 5 5 5 7 6 5 5 5 6 7 8 12 15 12 13 16 16 14 22 26 22 22 33 35 36 35 35 35 35 34 33 33
6 7 6 6 5 5 4 4 3 3 5 5 6 6 7 6 7 7 6 10 10 11 11 18 16 14 15 16 16 17 13 20 18 28 36 36 38 36 33 31 31 32 32
8 6 6 6 5 5 4 3 4 5 5 6 6 6 8 6 8 7 8 10 10 9 11 12 17 12 14 13 15 14 13 13 14 30 34 35 34 33 31 31 32 35 35
8 6 6 5 5 4 3 3 4 5 6 6 6 6 7 8 10 11 11 12 11 10 10 10 13 14 13 13 11 12 14 11 13 14 23 25 30 29 31 34 33 35 37
7 6 6 5 4 2 2 4 5 6 6 6 6 6 8 12 19 17 11 12 12 11 10 11 12 14 13 13 13 14 14 16 16 13 13 11 12 14 16 25 28 34 36
7 6 5 5 4 1 4 7 7 4 5 4 5 7 8 15 14 20 23 25 20 15 16 13 12 14 18 15 14 13 14 15 16 9 9 17 12 15 14 14 29 35 35
6 5 5 4 3 2 5 7 8 3 2 5 6 8 9 8 15 11 19 24 22 26 23 17 19 17 20 17 18 19 17 12 16 15 14 17 13 15 14 14 29 36 35
6 5 4 4 2 3 3 5 7 2 4 5 8 8 9 11 12 16 14 13 11 13 14 12 15 17 18 17 16 15 16 18 17 14 12 16 15 16 14 13 29 31 28
5 4 4 4 3 2 3 5 6 2 4 7 8 8 8 10 18 24 16 16 16 13 18 28 27 30 32 33 25 13 11 13 17 15 13 13 15 18 15 14 12 20 30
6 5 5 4 2 1 4 5 6 2 5 6 7 7 15 16 23 26 17 15 15 16 15 15 15 19 19 18 25 12 12 12 13 18 13 15 16 11 10 11 7 12 10
Wind_Direction
112 110 103 89 81 78 79 63 55 45 39 24 21 16 12 7 11 16 16 13 22 23 10 358 352 349 342 337 333 328 322 317 313 308 303 302 297 293 286 284 283 282 279
119 117 114 98 89 83 79 65 59 44 34 16 2 1 358 1 12 11 19 13 17 8 359 356 355 348 344 337 333 326 324 320 314 309 304 300 297 293 290 285 283 276 275
125 130 119 101 98 87 82 60 45 44 35 13 353 345 352 359 7 4 13 11 2 357 357 358 352 347 341 335 328 323 319 316 312 307 302 299 296 291 288 287 286 279 278
133 130 114 110 110 90 75 66 34 31 26 11 332 324 348 350 349 352 10 15 341 348 357 355 349 343 339 332 326 322 317 315 311 306 303 299 296 290 287 287 284 282 276
138 127 119 120 113 94 70 41 43 49 26 353 330 322 349 331 323 326 356 345 345 348 351 347 342 336 329 325 321 318 313 312 308 303 298 294 291 288 285 280 278 279 276
139 126 125 125 118 103 84 58 61 32 57 343 337 327 315 308 301 258 310 334 328 321 332 328 322 315 320 319 317 314 312 307 305 301 298 297 295 291 286 280 276 271 270
141 135 134 128 127 119 127 82 82 35 21 353 342 357 325 311 305 269 293 315 299 289 328 315 318 309 305 314 315 312 309 310 305 301 300 295 291 287 285 287 278 274 271
148 144 142 143 147 137 113 85 77 82 35 32 34 337 342 334 333 290 302 306 294 271 310 314 310 309 309 310 307 312 310 308 306 302 299 295 293 287 286 278 279 275 266
155 150 150 151 155 145 132 136 130 110 87 36 52 117 351 303 330 323 310 305 296 291 291 311 298 301 302 297 299 299 301 302 301 298 295 292 291 291 286 281 276 274 272
154 156 156 158 159 153 152 156 141 124 114 98 14 213 235 214 273 311 303 294 303 309 303 290 287 284 282 283 285 294 302 303 299 300 298 296 292 290 289 283 281 279 271
156 158 159 158 161 167 159 149 143 130 126 146 177 210 240 244 230 246 290 287 300 289 278 274 265 277 277 277 280 286 296 302 300 299 296 295 294 293 292 289 283 276 276
143 158 160 165 170 170 163 167 152 142 157 183 210 213 213 238 229 238 272 296 290 293 295 285 270 261 267 274 282 299 304 302 299 298 298 295 295 293 294 293 290 281 275
156 167 157 166 175 177 165 164 149 154 168 202 215 235 230 236 243 258 267 284 279 301 285 240 256 251 264 276 280 297 298 301 300 297 296 294 293 293 297 297 293 288 282
157 160 166 172 172 166 166 158 134 170 194 230 249 241 252 246 236 248 261 291 302 275 287 265 242 257 260 271 289 303 297 296 298 297 296 294 293 292 290 292 291 289 287
152 157 157 160 170 168 167 152 159 201 225 251 255 248 250 256 244 249 256 259 273 305 306 273 273 236 297 297 293 299 292 290 297 297 297 296 293 289 288 286 286 284 287
138 143 153 160 169 167 164 154 166 220 240 258 259 259 258 257 254 255 260 261 258 271 283 296 296 298 299 295 295 298 291 293 292 294 295 295 295 292 289 285 282 281 285
142 146 154 163 167 173 166 160 205 245 251 260 263 261 265 258 267 261 250 257 260 264 274 287 288 294 295 295 294 291 292 290 289 291 293 295 296 291 288 285 284 280 279
139 147 153 158 170 172 168 189 228 261 257 265 270 269 273 281 273 265 261 265 281 270 271 286 293 296 289 295 291 289 288 287 286 288 291 290 295 297 291 290 287 281 281
140 144 148 162 172 177 185 212 228 253 259 256 261 270 274 275 281 277 272 272 270 268 265 270 288 290 289 292 290 286 287 286 283 288 288 291 291 292 289 289 288 285 283
143 144 153 164 168 174 201 234 244 252 256 256 258 257 267 272 272 284 273 271 274 277 278 275 283 290 292 294 283 292 298 293 295 290 288 281 290 287 292 289 285 282 281
143 143 149 160 160 166 225 226 242 249 255 265 263 271 276 275 287 293 299 293 294 294 290 290 295 293 296 303 300 302 297 298 292 288 286 289 294 289 284 282 276 274 272
136 144 155 156 150 196 253 275 268 247 256 284 300 294 281 293 293 295 301 300 299 301 296 294 293 303 301 300 299 302 299 297 299 279 300 297 292 287 283 279 275 272 268
138 148 149 146 145 221 269 273 293 295 328 307 293 285 290 293 301 289 284 290 290 288 299 304 299 296 299 299 296 293 289 292 296 300 300 292 296 287 286 281 281 288 283
142 138 143 130 160 236 269 299 310 330 312 290 281 282 283 287 286 295 305 302 303 298 296 292 291 293 289 289 284 288 301 299 292 293 292 290 298 289 290 287 288 296 293
125 133 133 150 188 247 312 322 314 284 293 284 287 288 281 292 301 317 320 314 311 307 302 301 299 302 304 302 298 299 298 302 298 300 301 292 298 296 295 290 273 281 297
134 145 140 156 208 38 334 324 324 258 288 292 295 286 305 318 321 327 324 319 317 309 308 314 313 303 300 296 298 300 299 295 296 301 308 304 300 303 304 288 285 292 283